Probability
39 13 19 29 13 0 0 0 0 3 3 3 0 0 0 0 0 3 6 26 32 35 42 58 81 77 74 74 81 84 81 81 81 84 81 84 84 81 74 77 74 77 77 81 71 71 71 65 58
13 19 29 32 6 0 0 0 0 3 0 3 6 3 3 13 23 13 19 23 26 29 35 48 77 84 81 84 87 90 87 87 77 81 84 87 87 81 81 74 71 77 68 74 81 68 71 71 65
19 26 42 29 0 0 0 0 0 0 3 6 6 10 6 16 19 10 10 16 23 32 39 55 81 84 84 81 84 90 87 84 81 77 84 87 84 81 81 77 74 71 68 71 68 55 61 65 61
29 35 42 13 3 0 0 0 0 0 6 10 13 13 10 10 16 13 6 16 26 32 35 61 81 84 81 77 84 84 87 84 84 81 84 77 74 81 77 71 77 71 68 65 52 52 65 65 58
39 42 26 3 0 0 0 0 0 0 6 6 6 10 6 10 13 13 10 19 23 29 35 65 74 74 77 81 84 90 84 81 84 74 74 74 68 68 77 74 71 61 61 58 45 52 55 58 65
39 32 6 0 0 0 0 3 3 3 3 3 3 3 3 6 13 16 23 19 23 29 35 55 81 81 84 84 81 87 90 84 81 74 68 68 65 61 61 61 68 55 52 52 48 55 52 55 58
39 19 3 0 0 0 0 0 0 3 3 3 3 0 3 10 13 16 19 16 29 32 35 45 52 71 81 77 81 81 81 81 68 61 68 68 65 65 68 65 58 48 45 52 45 48 52 55 55
26 13 3 0 0 0 0 0 0 3 3 6 3 0 0 6 6 13 19 23 26 26 35 35 39 35 42 55 74 74 81 71 61 65 65 65 65 65 71 65 65 48 48 42 35 45 55 55 65
19 10 0 0 0 0 0 0 3 3 6 6 6 0 3 10 10 6 16 23 23 23 26 29 23 26 26 32 58 68 77 81 71 71 71 61 32 32 35 42 58 39 45 35 45 52 55 68 65
13 3 0 0 0 0 0 0 0 3 6 6 6 6 10 10 3 6 10 10 6 6 10 19 23 16 23 29 29 39 45 35 32 26 23 23 16 26 32 48 61 52 45 39 55 61 58 45 16
0 0 0 0 0 0 0 3 0 3 3 3 6 6 6 3 3 6 6 3 6 6 10 6 10 13 16 19 16 23 16 16 16 10 10 10 10 6 23 16 26 32 29 23 19 35 16 16 10
0 0 0 0 0 0 0 3 6 10 13 3 3 3 3 3 3 3 3 6 6 3 6 16 10 19 19 16 19 26 16 16 13 6 6 6 6 3 6 6 6 10 13 10 13 6 13 10 13
0 0 0 0 0 0 3 6 10 13 10 3 3 3 3 3 3 0 3 6 6 6 10 16 16 16 16 10 19 23 23 13 10 10 3 3 6 6 3 6 6 16 10 10 10 6 6 6 10
0 0 0 0 0 3 3 6 6 10 3 3 3 3 3 3 3 3 6 6 10 16 13 10 13 16 10 16 19 19 19 13 10 10 6 6 6 6 16 10 10 13 16 6 3 6 10 6 6
0 0 0 0 0 3 3 3 10 10 3 3 3 3 3 3 3 3 6 6 10 13 16 13 16 16 16 16 16 19 16 16 13 16 16 10 13 16 13 13 16 16 13 13 6 3 6 3 3
0 0 0 0 0 3 3 3 6 10 3 3 3 6 6 6 6 6 6 10 10 13 16 19 26 16 13 16 16 16 19 13 10 16 16 16 19 16 19 23 19 19 16 10 10 3 3 3 3
0 0 0 0 0 0 0 6 6 3 10 3 3 3 3 10 6 6 10 10 13 13 19 23 23 19 26 19 23 19 19 19 19 16 19 16 10 10 13 10 10 10 6 6 10 6 3 3 3
0 0 0 0 0 0 3 3 6 3 0 3 3 3 6 10 6 10 16 16 16 16 13 23 26 26 29 19 19 19 19 19 19 19 13 13 13 10 10 6 3 3 10 10 6 10 6 3 3
0 0 0 0 0 3 3 3 3 6 3 6 10 3 6 6 13 13 19 23 19 19 19 26 26 32 29 23 19 19 19 19 19 13 13 13 13 10 3 6 3 6 6 10 10 10 10 3 3
0 0 0 0 3 3 3 3 3 6 6 3 6 6 10 6 16 19 19 19 23 29 26 32 32 32 32 29 23 26 19 16 16 13 13 13 10 10 10 3 3 6 6 3 6 10 6 6 3
0 0 0 0 0 0 3 3 3 3 3 0 3 10 10 6 13 19 23 16 19 32 32 42 35 42 35 32 32 29 13 23 16 16 10 6 6 6 3 3 10 10 6 10 6 6 13 10 10
0 0 0 0 0 0 0 0 0 3 3 0 3 3 6 10 10 6 19 16 26 32 32 35 39 42 42 32 35 29 23 16 10 13 13 10 6 3 10 10 10 10 10 6 10 10 6 6 13
0 0 0 0 0 0 0 0 0 0 0 0 3 3 6 6 6 10 19 23 32 45 39 42 42 42 48 35 32 23 13 10 10 6 13 13 10 13 13 10 13 10 10 10 3 6 10 6 10
0 0 0 0 0 0 0 0 0 0 0 0 3 6 10 10 6 10 16 23 29 39 52 48 48 52 42 42 35 29 19 16 10 13 10 13 10 13 13 10 13 10 10 10 10 10 10 13 10
0 0 0 0 0 0 0 0 3 3 0 3 3 0 0 10 6 10 13 19 29 42 45 45 48 55 48 48 48 23 23 19 19 13 10 10 6 10 13 13 13 10 13 10 10 13 13 13 10
0 0 0 0 0 0 0 0 3 3 3 0 0 0 10 3 6 13 19 29 39 48 52 52 48 52 55 55 45 32 32 32 23 19 23 13 13 13 16 16 13 13 19 19 13 13 10 13 10
0 0 0 0 0 0 0 0 3 3 0 0 6 0 6 13 6 10 19 26 42 45 52 55 52 48 52 48 55 52 39 29 29 26 26 16 13 19 13 19 16 19 16 16 16 13 16 13 13
0 0 0 0 0 0 0 0 6 6 6 6 6 10 3 16 16 16 23 29 39 45 45 55 55 52 48 45 48 52 45 35 29 35 26 23 16 19 26 16 13 19 19 19 16 16 19 16 10
0 0 0 0 0 0 0 0 6 3 3 6 6 10 6 6 16 23 29 35 26 42 48 52 52 55 48 48 45 52 52 42 39 32 29 26 23 19 19 19 13 16 23 23 19 16 19 19 16
0 0 0 0 0 0 0 0 3 6 3 3 3 6 13 6 16 19 19 23 32 42 48 55 55 58 55 45 52 48 48 45 42 39 29 26 26 23 19 19 16 19 19 23 23 19 19 23 23
Height
5907 5906 5906 5906 5905 5904 5903 5903 5902 5902 5901 5899 5899 5898 5898 5897 5897 5898 5895 5893 5893 5892 5892 5892 5891 5891 5892 5892 5892 5892 5893 5893 5893 5893 5894 5894 5894 5895 5895 5895 5896 5896 5896 5896 5896 5896 5896 5896 5897
5908 5908 5908 5908 5906 5906 5905 5904 5904 5903 5902 5900 5900 5899 5899 5898 5897 5896 5895 5894 5893 5893 5893 5893 5893 5893 5893 5893 5894 5894 5894 5894 5894 5894 5895 5895 5895 5896 5896 5896 5896 5896 5897 5897 5897 5897 5897 5897 5897
5909 5909 5910 5909 5907 5908 5907 5906 5905 5904 5902 5902 5901 5900 5900 5899 5898 5897 5896 5895 5894 5894 5894 5894 5894 5894 5894 5894 5895 5895 5895 5895 5895 5896 5896 5896 5896 5897 5897 5897 5897 5897 5897 5897 5897 5897 5897 5898 5898
5911 5912 5912 5910 5909 5909 5909 5908 5906 5905 5904 5903 5902 5902 5901 5899 5899 5898 5897 5896 5895 5895 5895 5895 5895 5895 5895 5895 5895 5895 5896 5896 5896 5897 5897 5897 5897 5897 5897 5898 5898 5898 5898 5898 5897 5898 5898 5899 5899
5914 5914 5913 5911 5910 5910 5910 5909 5908 5908 5906 5905 5904 5903 5902 5901 5899 5898 5897 5897 5897 5897 5897 5897 5897 5896 5896 5896 5896 5896 5896 5897 5897 5897 5898 5898 5898 5898 5898 5898 5899 5899 5899 5899 5899 5899 5899 5899 5900
5916 5916 5915 5913 5912 5912 5912 5911 5911 5910 5908 5907 5905 5904 5903 5902 5901 5899 5898 5898 5898 5898 5898 5898 5898 5898 5897 5897 5897 5896 5897 5897 5898 5898 5898 5898 5898 5899 5899 5899 5899 5899 5899 5900 5900 5900 5900 5900 5900
5919 5918 5916 5916 5915 5914 5914 5913 5913 5912 5910 5909 5907 5906 5904 5903 5902 5900 5899 5899 5899 5900 5900 5900 5900 5899 5899 5898 5898 5897 5897 5898 5898 5899 5899 5899 5899 5899 5899 5900 5900 5900 5900 5900 5900 5900 5900 5901 5901
5920 5920 5919 5918 5917 5917 5916 5915 5915 5914 5912 5911 5909 5907 5906 5905 5903 5901 5900 5900 5901 5901 5901 5901 5901 5900 5900 5899 5899 5898 5898 5898 5899 5899 5899 5900 5900 5900 5900 5900 5900 5900 5900 5900 5900 5900 5900 5901 5901
5921 5922 5921 5920 5920 5919 5918 5917 5916 5915 5913 5912 5911 5910 5908 5907 5905 5904 5903 5903 5903 5903 5902 5902 5902 5902 5901 5900 5900 5899 5899 5899 5900 5900 5900 5900 5901 5901 5901 5901 5901 5901 5901 5901 5901 5901 5901 5902 5902
5923 5923 5923 5922 5921 5921 5919 5919 5918 5916 5915 5914 5913 5912 5910 5909 5908 5907 5907 5906 5906 5905 5904 5904 5904 5903 5903 5902 5901 5901 5900 5901 5901 5901 5901 5901 5902 5902 5902 5901 5901 5901 5901 5901 5902 5902 5902 5902 5902
5924 5924 5924 5923 5922 5922 5921 5920 5919 5918 5917 5916 5915 5914 5912 5911 5910 5910 5909 5909 5909 5908 5907 5906 5906 5905 5904 5904 5903 5902 5902 5902 5902 5902 5902 5903 5903 5903 5903 5902 5902 5902 5902 5902 5902 5902 5903 5902 5902
5926 5925 5925 5924 5923 5923 5923 5922 5921 5920 5919 5918 5917 5916 5915 5914 5913 5912 5911 5911 5911 5910 5909 5908 5907 5907 5906 5905 5904 5904 5903 5903 5903 5903 5903 5904 5904 5904 5904 5904 5903 5903 5903 5903 5903 5903 5903 5903 5902
5926 5926 5926 5925 5925 5924 5924 5923 5923 5922 5921 5919 5918 5918 5917 5916 5915 5914 5913 5913 5912 5911 5911 5910 5909 5908 5908 5907 5906 5905 5905 5904 5904 5904 5904 5904 5905 5905 5905 5905 5904 5904 5904 5904 5903 5903 5903 5903 5903
5927 5927 5927 5926 5926 5926 5925 5924 5924 5923 5922 5921 5920 5919 5918 5917 5917 5916 5915 5914 5914 5914 5913 5912 5911 5910 5909 5908 5907 5906 5906 5906 5905 5905 5905 5905 5905 5905 5906 5905 5905 5905 5904 5904 5904 5904 5903 5903 5903
5927 5928 5928 5928 5927 5926 5926 5925 5925 5925 5924 5922 5922 5921 5920 5919 5918 5917 5916 5916 5915 5915 5914 5913 5912 5911 5910 5909 5908 5908 5908 5907 5906 5906 5906 5906 5906 5906 5906 5906 5905 5905 5905 5905 5904 5904 5904 5903 5903
5927 5928 5928 5928 5927 5927 5928 5926 5926 5925 5924 5923 5923 5922 5922 5920 5919 5918 5918 5917 5916 5916 5915 5914 5913 5912 5911 5911 5910 5909 5909 5908 5908 5907 5907 5907 5906 5906 5906 5906 5906 5905 5905 5905 5904 5904 5904 5903 5903
5927 5927 5927 5928 5927 5927 5927 5926 5926 5925 5925 5924 5924 5923 5922 5921 5920 5919 5919 5918 5918 5917 5916 5915 5914 5914 5913 5912 5911 5910 5910 5909 5909 5908 5908 5907 5907 5907 5906 5906 5906 5905 5905 5905 5904 5904 5903 5903 5903
5926 5926 5926 5927 5926 5926 5926 5926 5926 5925 5925 5925 5924 5923 5922 5922 5921 5920 5919 5918 5918 5918 5917 5916 5915 5914 5914 5913 5912 5911 5910 5910 5909 5908 5908 5907 5907 5907 5907 5906 5906 5905 5905 5904 5903 5903 5903 5903 5902
5925 5925 5925 5926 5925 5925 5924 5925 5925 5925 5924 5924 5923 5922 5922 5922 5921 5921 5919 5918 5918 5917 5917 5917 5916 5915 5914 5913 5912 5911 5911 5910 5909 5909 5908 5908 5907 5907 5906 5906 5905 5905 5904 5904 5903 5902 5902 5902 5901
5922 5923 5924 5924 5924 5923 5923 5923 5923 5923 5922 5922 5922 5921 5921 5921 5920 5920 5919 5918 5917 5917 5917 5917 5916 5916 5914 5913 5912 5912 5911 5910 5909 5909 5908 5907 5907 5906 5906 5905 5905 5904 5903 5903 5902 5902 5901 5901 5900
5920 5921 5922 5922 5922 5921 5922 5922 5921 5921 5921 5920 5919 5919 5920 5919 5919 5919 5918 5918 5917 5917 5916 5916 5916 5915 5914 5913 5912 5911 5910 5910 5909 5908 5908 5907 5906 5906 5905 5904 5903 5903 5902 5902 5901 5901 5900 5899 5899
5917 5918 5919 5919 5919 5919 5920 5919 5919 5919 5919 5919 5918 5918 5918 5918 5918 5918 5918 5917 5917 5916 5916 5915 5915 5914 5913 5912 5911 5911 5910 5909 5908 5908 5907 5906 5906 5905 5904 5903 5902 5902 5901 5900 5900 5899 5898 5898 5897
5915 5916 5916 5916 5916 5916 5917 5917 5917 5917 5917 5917 5917 5916 5915 5916 5916 5916 5916 5916 5915 5915 5914 5914 5913 5913 5912 5911 5910 5909 5909 5908 5907 5906 5906 5905 5904 5903 5902 5902 5901 5900 5899 5898 5898 5897 5896 5895 5894
5911 5913 5913 5913 5913 5913 5914 5914 5914 5913 5914 5914 5914 5913 5913 5913 5913 5913 5913 5913 5913 5913 5912 5912 5911 5911 5910 5910 5909 5908 5907 5906 5906 5905 5904 5903 5902 5901 5901 5900 5899 5898 5897 5896 5895 5894 5893 5892 5891
5907 5909 5909 5909 5909 5909 5911 5910 5911 5910 5910 5911 5911 5910 5910 5910 5911 5911 5910 5910 5910 5910 5909 5909 5909 5908 5908 5908 5907 5906 5906 5905 5904 5903 5902 5901 5900 5899 5898 5897 5896 5895 5894 5893 5892 5891 5890 5889 5888
5903 5904 5905 5905 5905 5906 5906 5906 5907 5907 5907 5907 5907 5907 5907 5907 5907 5907 5907 5907 5908 5907 5906 5906 5906 5906 5905 5905 5905 5904 5904 5903 5902 5901 5900 5899 5898 5897 5895 5894 5893 5892 5891 5890 5888 5887 5886 5885 5884
5898 5899 5900 5901 5901 5901 5901 5902 5903 5902 5903 5903 5903 5903 5904 5904 5904 5904 5904 5904 5904 5904 5903 5903 5903 5903 5902 5902 5902 5901 5900 5900 5899 5898 5897 5896 5895 5893 5892 5891 5890 5889 5888 5886 5885 5884 5883 5882 5881
5894 5895 5896 5896 5896 5895 5896 5897 5898 5898 5897 5898 5899 5899 5900 5901 5900 5900 5900 5900 5901 5901 5901 5900 5900 5899 5899 5898 5898 5898 5897 5896 5896 5895 5894 5892 5891 5890 5889 5888 5886 5885 5884 5883 5882 5880 5879 5878 5877
5888 5890 5890 5891 5891 5891 5890 5894 5894 5894 5894 5894 5894 5895 5895 5896 5895 5896 5896 5896 5897 5897 5897 5896 5896 5895 5895 5895 5894 5894 5893 5893 5892 5890 5889 5888 5887 5886 5885 5884 5883 5881 5880 5879 5878 5877 5875 5874 5872
5882 5883 5884 5885 5885 5886 5886 5890 5888 5889 5889 5889 5890 5890 5891 5890 5890 5891 5892 5892 5892 5892 5892 5892 5892 5891 5891 5891 5889 5889 5889 5888 5888 5887 5885 5884 5883 5882 5881 5880 5879 5877 5876 5875 5874 5872 5871 5869 5867
Wind_Speed
14 14 14 13 14 15 15 15 14 13 12 12 11 11 10 10 9 9 8 7 7 8 7 7 7 7 7 6 5 5 5 5 5 5 5 5 4 4 5 6 5 5 5 4 4 5 5 5 5
15 14 14 14 15 15 15 17 15 14 13 12 11 11 10 9 9 9 9 8 8 8 7 7 7 7 7 5 5 5 5 5 5 4 5 5 5 5 5 5 5 5 4 4 4 4 5 5 5
15 15 15 16 16 16 16 16 15 15 13 13 12 11 10 10 9 9 9 9 9 8 7 7 8 7 6 6 5 5 5 5 5 5 5 5 5 5 5 4 4 5 5 5 4 5 5 5 5
16 15 15 17 17 17 17 16 16 15 14 13 13 12 11 11 10 10 10 10 9 9 8 8 8 7 6 5 5 5 5 5 5 5 5 5 4 4 4 4 4 5 5 5 6 6 6 5 5
16 15 16 16 16 17 17 17 16 14 14 14 14 13 12 12 11 11 10 10 9 10 9 9 8 8 6 6 6 5 5 5 5 4 4 3 4 4 4 5 4 4 4 4 5 5 5 4 4
16 16 15 16 16 16 16 16 16 15 14 14 14 13 12 12 12 11 11 9 9 9 10 9 9 8 8 7 6 6 6 5 5 5 4 4 4 4 5 4 4 4 4 4 4 4 3 3 3
16 16 16 17 16 16 15 15 15 14 15 14 14 14 13 12 12 12 11 10 10 10 9 9 9 9 8 7 7 6 6 5 5 5 5 5 5 5 4 4 4 4 4 4 3 3 3 4 4
15 16 16 16 15 15 15 14 14 14 14 14 14 14 13 13 13 12 12 11 10 10 10 9 9 9 8 8 7 7 7 6 6 6 6 6 5 5 5 4 4 4 4 4 3 4 4 5 4
16 16 17 15 15 14 14 14 14 14 14 14 14 14 13 13 13 14 13 12 12 12 11 10 10 9 8 8 8 8 8 7 7 6 6 6 6 5 5 5 5 4 4 4 4 4 5 5 4
14 14 14 15 14 13 13 13 14 14 14 14 13 13 13 12 13 14 14 13 13 13 12 11 10 10 9 9 9 8 8 8 7 7 6 6 6 5 5 5 5 4 4 4 4 3 4 4 4
11 12 13 13 13 13 13 13 13 13 14 13 13 13 13 12 12 13 14 13 13 12 12 12 11 11 11 11 9 8 8 7 7 6 6 7 6 5 5 6 5 4 4 4 4 3 4 4 3
8 9 11 11 12 12 12 13 13 13 12 12 12 12 12 12 12 12 12 12 13 13 12 12 11 11 11 11 10 9 8 7 7 7 7 7 6 5 5 5 4 4 4 4 3 3 4 3 2
7 8 10 11 11 11 11 11 11 12 11 11 12 12 12 11 11 12 12 12 12 13 13 12 12 11 11 11 11 10 9 8 7 7 7 6 6 5 5 5 4 4 4 4 4 4 3 3 2
5 6 8 9 9 10 10 10 10 11 11 11 11 12 12 11 11 11 11 11 11 11 12 12 11 11 11 11 11 10 10 9 7 6 6 6 5 5 5 5 4 4 4 3 3 3 3 3 3
2 3 6 7 7 7 9 10 10 10 9 9 9 10 10 10 10 11 11 10 10 10 10 11 10 10 10 10 10 10 9 9 8 6 6 6 6 5 5 4 3 3 3 2 2 2 3 3 3
2 2 3 4 4 5 7 9 10 9 8 8 8 8 8 9 9 9 9 9 9 9 9 10 10 9 9 9 9 9 8 8 7 7 6 6 6 5 5 4 3 3 3 2 2 2 2 3 2
2 0 2 3 3 3 5 8 8 8 8 8 7 7 7 8 7 8 8 8 8 8 8 8 9 9 9 9 8 8 7 7 6 6 5 5 6 6 5 5 4 3 3 2 1 1 1 2 2
4 3 2 1 3 3 4 6 7 8 6 7 7 6 6 7 6 6 7 7 7 7 7 7 8 8 8 8 7 7 7 6 5 5 5 5 5 5 5 5 4 4 3 3 2 2 2 2 2
6 6 5 4 4 5 6 6 7 8 6 6 6 6 5 6 6 5 4 5 6 6 6 6 7 7 6 6 6 7 6 6 6 5 4 4 4 4 4 4 4 4 3 3 3 3 2 2 2
9 8 7 6 6 7 8 8 7 6 6 6 5 6 6 5 5 5 3 3 4 4 4 5 5 5 6 6 6 6 6 6 6 6 4 3 4 4 3 3 3 3 4 4 4 3 3 3 3
10 10 9 8 8 10 10 9 8 6 7 6 5 6 7 6 6 6 6 6 4 2 2 3 4 5 5 5 5 5 5 5 5 5 4 4 4 4 5 4 4 4 4 4 4 4 4 5 5
12 12 11 10 9 11 11 11 9 7 8 7 7 7 7 7 7 6 6 6 5 4 3 3 4 4 4 5 5 5 5 5 5 5 5 5 5 6 6 6 4 4 4 5 5 5 5 6 7
12 13 14 12 11 13 13 12 9 10 10 8 9 9 8 8 8 7 6 6 5 6 5 4 4 4 4 5 5 5 6 6 6 5 6 6 7 6 6 7 6 5 6 6 7 7 7 8 8
13 14 15 14 13 14 13 15 12 12 11 10 10 9 9 9 9 9 9 7 6 7 6 6 6 6 5 5 5 6 6 6 6 6 6 6 7 7 7 8 7 7 7 8 8 8 9 9 10
14 15 16 16 16 15 13 15 14 12 12 11 10 9 9 10 10 10 9 8 8 9 8 8 7 7 7 6 7 6 6 6 7 7 7 7 8 8 8 9 9 9 9 10 9 9 10 10 10
15 17 18 18 18 16 16 17 16 15 14 13 11 10 10 11 11 10 10 9 9 10 9 9 8 8 8 8 7 7 7 7 8 8 9 9 9 10 10 10 10 9 9 9 10 10 11 11 11
17 17 18 20 20 20 19 18 16 16 17 17 14 12 11 12 11 11 11 10 9 10 11 11 9 10 11 9 8 8 8 8 8 9 9 10 11 11 11 11 10 10 10 10 10 11 11 12 12
18 17 18 20 22 22 21 19 18 17 17 16 15 13 13 14 14 14 13 11 10 11 12 12 11 11 11 11 10 10 10 10 10 10 10 11 12 12 11 11 11 11 11 12 12 12 13 13 13
21 20 21 23 23 24 23 21 19 19 18 17 17 16 16 17 17 16 15 13 13 13 14 14 13 12 12 12 12 12 12 11 11 11 11 12 13 13 13 13 13 13 13 13 13 13 14 14 15
22 23 24 25 25 25 25 24 20 20 20 20 19 18 17 18 17 17 16 15 15 15 14 14 14 13 13 13 13 12 12 13 13 13 14 13 13 13 13 14 14 14 15 15 15 15 15 16 17
Wind_Direction
77 71 67 65 59 52 49 49 48 49 46 43 42 46 50 53 59 63 66 67 72 78 81 82 88 93 101 102 104 113 117 107 104 107 111 111 110 109 105 102 104 109 108 106 112 121 117 112 114
77 70 67 65 62 53 51 48 48 48 45 43 41 45 49 49 57 66 71 67 68 74 84 87 92 95 99 98 101 106 112 107 106 107 105 107 106 102 102 102 105 104 100 101 110 118 121 119 116
74 68 64 65 63 56 52 50 48 44 43 44 43 48 50 55 57 64 70 68 69 73 83 87 92 91 88 88 94 100 105 105 104 105 107 104 100 99 97 105 107 103 94 95 105 111 117 116 108
74 64 63 63 60 56 52 49 47 47 45 46 48 49 53 58 62 62 66 70 72 74 78 87 86 83 81 85 92 98 99 100 106 106 109 102 97 96 96 102 109 105 96 95 105 104 104 113 112
74 67 64 61 56 53 51 47 45 47 46 50 51 52 56 60 64 64 65 67 73 75 77 78 78 76 80 77 79 93 100 98 100 105 106 103 103 101 102 104 114 111 105 103 107 98 97 106 107
75 68 63 61 56 53 51 49 48 46 46 49 52 53 56 59 63 64 66 70 75 78 78 77 77 76 78 79 77 85 95 96 97 96 93 98 108 112 108 107 115 113 107 107 107 96 91 96 103
71 68 62 58 54 52 51 49 49 48 46 47 51 53 53 56 61 62 65 70 76 81 82 80 79 77 76 75 77 83 89 93 95 92 88 94 102 105 104 106 111 108 102 107 104 101 90 89 92
72 64 60 55 52 51 48 47 48 48 49 47 49 51 50 56 61 65 70 76 79 79 82 81 78 76 73 76 78 82 87 92 95 95 95 95 97 96 96 99 107 106 103 104 108 100 99 89 83
73 64 59 57 50 46 45 44 47 49 48 47 48 49 52 58 63 70 76 75 75 74 77 80 79 77 77 73 79 82 88 89 92 100 101 97 97 96 96 101 106 104 102 100 100 92 95 87 88
69 64 57 54 50 47 46 44 49 48 45 47 46 50 54 61 66 71 74 75 74 73 76 78 77 76 75 71 76 80 87 89 93 99 100 98 96 92 93 99 104 106 103 101 99 85 82 88 93
73 66 61 57 54 50 40 38 44 47 45 45 47 51 54 59 65 69 72 72 72 71 72 75 76 74 71 71 79 76 83 90 95 98 101 100 95 91 88 87 90 102 100 94 91 85 86 85 94
78 64 60 56 51 47 38 35 40 43 42 45 49 55 55 57 62 67 70 70 68 68 70 73 73 71 69 71 76 79 77 88 96 97 96 96 94 91 88 86 86 88 85 79 80 86 84 78 79
88 71 63 58 54 50 41 33 38 40 41 44 49 53 52 56 60 66 70 69 67 66 65 66 68 68 65 63 64 72 77 78 83 84 86 91 92 85 80 79 82 76 69 67 82 83 78 70 70
89 65 62 59 56 52 44 35 35 38 39 43 48 47 46 50 54 61 67 67 66 66 65 64 63 65 64 63 61 61 63 69 79 86 87 88 85 84 80 78 81 72 69 68 62 53 47 46 41
113 69 59 53 48 43 39 30 29 30 34 40 42 42 42 47 52 57 61 61 61 62 63 59 58 60 58 56 56 57 56 57 64 77 78 78 81 84 81 73 70 61 63 61 51 36 30 35 35
124 83 58 45 41 25 20 16 18 26 32 34 32 34 36 43 48 50 54 59 60 58 58 56 56 56 55 52 50 51 54 55 59 64 67 70 71 76 75 69 65 57 53 44 38 25 29 32 26
206 33 74 32 16 8 11 3 0 10 29 30 24 25 26 32 42 47 55 57 58 55 53 50 50 51 49 48 48 49 50 49 49 53 58 61 62 63 69 66 57 53 43 33 30 19 16 20 13
215 229 231 295 327 309 332 348 344 348 1 10 6 6 10 16 25 38 52 52 50 50 50 48 46 46 45 42 41 44 45 42 41 46 49 49 52 50 54 49 42 35 20 5 354 324 309 313 317
227 237 233 247 263 276 298 315 325 334 334 349 342 344 354 359 2 8 28 41 43 42 45 42 41 42 40 35 32 34 40 42 39 38 39 40 35 31 21 25 21 18 11 358 349 337 314 306 308
234 242 241 253 252 267 287 298 309 308 320 332 336 331 336 344 341 339 344 358 16 32 36 31 28 29 30 29 27 28 32 31 29 27 21 15 12 10 8 8 356 354 350 346 340 319 310 307 298
239 248 249 254 259 270 280 288 293 286 296 309 318 319 321 328 328 330 331 331 332 347 5 7 5 10 14 14 12 14 17 15 14 13 12 5 354 353 350 337 335 339 336 331 332 317 301 304 298
242 248 242 244 247 257 267 274 275 277 294 300 307 311 311 317 314 313 320 327 321 306 314 330 342 347 352 356 354 354 355 354 354 354 354 350 342 340 345 342 328 322 320 320 319 309 306 304 302
245 248 247 246 252 255 260 271 268 264 278 286 298 301 299 302 301 298 301 310 309 301 291 296 305 313 326 333 338 337 334 333 335 333 335 339 334 330 333 336 326 311 305 306 305 304 302 303 301
241 250 253 249 254 258 255 266 273 267 265 279 288 287 289 288 286 285 289 293 292 292 282 288 292 294 305 313 318 322 323 322 322 322 325 326 328 327 325 326 326 318 309 306 303 300 300 298 297
240 248 253 250 253 259 261 268 276 271 269 276 286 283 280 282 281 280 281 285 291 291 282 285 288 290 295 299 303 307 310 312 314 315 317 316 316 319 318 317 317 315 309 303 299 299 300 295 293
241 247 253 254 256 257 261 267 273 273 270 276 278 279 280 280 278 278 280 280 284 283 281 286 288 290 292 292 292 297 300 301 301 304 304 304 304 307 307 306 307 307 308 306 301 299 302 299 295
242 247 252 255 257 260 263 267 270 272 271 269 270 271 273 280 273 278 276 276 277 283 287 288 289 291 289 287 285 287 292 294 293 294 296 298 300 301 300 300 300 303 306 307 306 304 304 302 300
245 249 252 255 258 261 263 266 270 268 271 270 273 267 270 274 276 277 278 272 275 281 282 284 288 291 287 282 281 284 288 288 288 291 294 295 297 298 298 293 294 297 299 300 301 303 302 299 298
243 245 250 255 258 262 266 267 270 271 271 270 274 273 273 271 271 278 277 276 278 281 283 282 283 286 283 281 281 281 284 285 290 293 293 295 297 296 294 293 295 293 294 298 299 300 300 296 294
244 244 246 251 255 259 264 267 269 269 270 270 272 272 273 272 270 269 272 275 276 279 280 280 281 282 280 279 279 279 287 290 291 292 296 296 296 296 293 291 292 292 292 294 295 296 297 296 293